TimeCET,TemperatureF,Dew PointF,Humidity,Sea Level PressureIn,VisibilityMPH,Wind Direction,Wind SpeedMPH,Gust SpeedMPH,PrecipitationIn,Events,Conditions,WindDirDegrees,DateUTC
12:00 AM,35.6,32.0,87,30.12,6.2,SE,3.5,-,N/A,,Unknown,130,2012-10-28 23:00:00
12:30 AM,33.8,32.0,93,30.12,6.2,SE,3.5,-,N/A,,Unknown,130,2012-10-28 23:30:00
1:00 AM,33.8,30.2,87,30.12,6.2,SE,4.6,-,N/A,,Unknown,130,2012-10-29 00:00:00
1:30 AM,33.8,30.2,87,30.09,6.2,SE,4.6,-,N/A,,Unknown,130,2012-10-29 00:30:00
2:00 AM,33.8,30.2,87,30.09,6.2,ESE,3.5,-,N/A,,Unknown,120,2012-10-29 01:00:00
2:30 AM,33.8,30.2,87,30.09,6.2,SSE,2.3,-,N/A,,Unknown,160,2012-10-29 01:30:00
3:00 AM,33.8,30.2,87,30.09,6.2,SSE,2.3,-,N/A,,Unknown,150,2012-10-29 02:00:00
3:30 AM,32.0,30.2,93,30.06,6.2,ESE,2.3,-,N/A,,Unknown,110,2012-10-29 02:30:00
4:00 AM,32.0,30.2,93,30.06,6.2,ESE,2.3,-,N/A,,Unknown,120,2012-10-29 03:00:00
4:30 AM,32.0,28.4,87,30.06,6.2,SE,2.3,-,N/A,,Unknown,130,2012-10-29 03:30:00
5:00 AM,30.2,28.4,93,30.06,6.2,SE,2.3,-,N/A,,Unknown,130,2012-10-29 04:00:00
5:30 AM,30.2,28.4,93,30.06,6.2,SE,3.5,-,N/A,,Unknown,130,2012-10-29 04:30:00
6:00 AM,32.0,28.4,87,30.04,-9999.0,ESE,3.5,-,N/A,,Clear,110,2012-10-29 05:00:00
6:30 AM,32.0,28.4,87,30.04,-9999.0,SSE,2.3,-,N/A,,Clear,150,2012-10-29 05:30:00
7:00 AM,30.2,26.6,86,30.04,-9999.0,SE,2.3,-,N/A,,Clear,130,2012-10-29 06:00:00
7:30 AM,30.2,28.4,93,30.04,-9999.0,Calm,Calm,-,N/A,,Clear,0,2012-10-29 06:30:00
8:00 AM,30.2,28.4,93,30.04,-9999.0,Calm,Calm,-,N/A,,Clear,0,2012-10-29 07:00:00
8:30 AM,33.8,30.2,87,30.04,-9999.0,Variable,2.3,-,N/A,,Clear,0,2012-10-29 07:30:00
9:00 AM,37.4,30.2,75,30.04,-9999.0,SE,4.6,-,N/A,,Clear,130,2012-10-29 08:00:00
9:30 AM,39.2,32.0,75,30.01,-9999.0,SE,5.8,-,N/A,,Clear,130,2012-10-29 08:30:00
10:00 AM,44.6,32.0,61,30.01,-9999.0,ESE,6.9,-,N/A,,Clear,120,2012-10-29 09:00:00
10:30 AM,48.2,33.8,58,30.01,-9999.0,East,8.1,-,N/A,,Clear,100,2012-10-29 09:30:00
11:00 AM,50.0,28.4,43,29.98,-9999.0,ESE,5.8,-,N/A,,Clear,110,2012-10-29 10:00:00
11:30 AM,51.8,26.6,38,29.98,-9999.0,East,10.4,-,N/A,,Clear,100,2012-10-29 10:30:00
12:08 PM,53.6,23.0,30,29.95,-9999.0,ESE,9.2,-,N/A,,Clear,120,2012-10-29 11:08:00
12:30 PM,53.6,24.8,33,29.95,-9999.0,ESE,10.4,-,N/A,,Clear,120,2012-10-29 11:30:00
1:00 PM,55.4,24.8,31,29.95,-9999.0,ESE,11.5,-,N/A,,Clear,110,2012-10-29 12:00:00
1:30 PM,55.4,24.8,31,29.92,-9999.0,East,11.5,-,N/A,,Clear,90,2012-10-29 12:30:00
2:00 PM,55.4,26.6,33,29.92,-9999.0,ESE,10.4,-,N/A,,Clear,110,2012-10-29 13:00:00
2:30 PM,55.4,24.8,31,29.92,-9999.0,East,9.2,-,N/A,,Clear,90,2012-10-29 13:30:00
3:00 PM,55.4,24.8,31,29.89,-9999.0,East,9.2,-,N/A,,Clear,90,2012-10-29 14:00:00
3:30 PM,55.4,26.6,33,29.89,-9999.0,East,8.1,-,N/A,,Clear,100,2012-10-29 14:30:00
4:00 PM,55.4,26.6,33,29.89,-9999.0,East,9.2,-,N/A,,Clear,80,2012-10-29 15:00:00
4:30 PM,55.4,28.4,36,29.86,-9999.0,East,8.1,-,N/A,,Clear,80,2012-10-29 15:30:00
5:00 PM,53.6,28.4,38,29.86,-9999.0,East,5.8,-,N/A,,Clear,80,2012-10-29 16:00:00
5:30 PM,53.6,28.4,38,29.86,-9999.0,East,5.8,-,N/A,,Clear,90,2012-10-29 16:30:00
6:00 PM,50.0,28.4,43,29.86,-9999.0,East,3.5,-,N/A,,Clear,80,2012-10-29 17:00:00
6:30 PM,48.2,30.2,50,29.86,-9999.0,East,3.5,-,N/A,,Clear,80,2012-10-29 17:30:00
7:00 PM,46.4,32.0,57,29.86,-9999.0,East,4.6,-,N/A,,Clear,100,2012-10-29 18:00:00
7:30 PM,44.6,32.0,61,29.86,-9999.0,East,5.8,-,N/A,,Clear,100,2012-10-29 18:30:00
8:00 PM,42.8,32.0,66,29.86,-9999.0,SE,4.6,-,N/A,,Clear,130,2012-10-29 19:00:00
8:30 PM,42.8,32.0,66,29.86,-9999.0,SSE,3.5,-,N/A,,Clear,150,2012-10-29 19:30:00
9:00 PM,41.0,33.8,76,29.86,-9999.0,ESE,1.2,-,N/A,,Clear,110,2012-10-29 20:00:00
9:30 PM,37.4,32.0,81,29.86,6.2,SE,2.3,-,N/A,,Unknown,130,2012-10-29 20:30:00
10:00 PM,37.4,33.8,87,29.86,6.2,East,3.5,-,N/A,,Unknown,90,2012-10-29 21:00:00
10:30 PM,37.4,33.8,87,29.83,6.2,ESE,3.5,-,N/A,,Unknown,110,2012-10-29 21:30:00
11:00 PM,39.2,32.0,75,29.83,6.2,SE,3.5,-,N/A,,Unknown,130,2012-10-29 22:00:00
11:30 PM,37.4,32.0,81,29.83,6.2,SE,3.5,-,N/A,,Unknown,130,2012-10-29 22:30:00